Weather in Kumejima

Japan     36°33′51″N   140°29′00″E
temp.,
°C
wind,
m/s
gust,
m/s
humid.,
%
clouds,
%
prec.,
mm/h
press.,
hPa
HPBL,
m
30 june, thu
thu3000:00+26nnw1259100 0.0 101051
03:00+25nnw126089 0.0 101028
06:00+26nw23589 0.0 1012147
09:00+34wnw22377 0.0 1012973
12:00+37sse44305 0.0 10112098
15:00+34sse553614 0.0 1011789
18:00+29se355391 0.0 1013426
21:00+26ene126811 0.0 1015116
1 july, fri
fri100:00+26nne116899 0.0 101539
03:00+25n22665 0.0 101451
06:00+27nne12604 0.0 1015133
09:00+34e11400 0.0 1015902
12:00+36ese43350 0.0 10141856
15:00+35ese43370 0.0 1014933
18:00+30e345525 0.0 1015323
21:00+27ese11620 0.3 101696
2 july, sat
sat200:00+26wnw11660 0.0 101529
03:00+25nw11740 0.5 101533
06:00+27ene11690 0.0 1016182
09:00+32ese22490 0.0 1015873
12:00+35ese43410 0.0 10141417
15:00+34ese44424 0.0 1012826
18:00+30e34585 0.2 1012335
21:00+26ene118399 2.1 101354
3 july, sun
sun300:00+25ssw1181100 0.0 101312
03:00+24sw118018 0.0 101211
06:00+25nnw12776 0.1 1012134
09:00+33se2145100 0.1 1012835
12:00+36ese423289 0.0 10101670
15:00+34e443938 0.0 1008688
18:00+26nnw3583100 3.1 1010263
21:00+23nw129299 16.8 1012105
4 july, mon
mon400:00+24nw1293100 0.9 1011113
03:00+23nne1294100 2.2 101191
06:00+22n1395100 0.7 1012149
09:00+23nw1294100 1.6 1012181
12:00+23w2390100 0.5 1012350
15:00+26wsw2478100 0.6 1011586
18:00+25wnw1182100 0.3 101117
21:00+24w1192100 1.7 101215